Location: Avenches
(46.8809°N, 7.0410°E)
Time: 23:31:43
(UTC+00:00)

Cosmos 2369 Rocket - Pass Details

Date: 30 March 2020
Orbit: 829 x 852 km, 71.0° (Epoch: 27 May)

Event Time Altitude Azimuth Distance (km) Brightness Sun altitude
Rises 19:32:17 0° 335° (NNW) 3,428 6.2 -16.1°
Reaches altitude 10° 19:34:48 10° 339° (NNW) 2,486 5.3 -16.5°
Maximum altitude 19:40:27 61° 59° (ENE) 957 2.3 -17.4°
Enters shadow 19:43:15 30° 129° (SE) 1,486 2.9 -17.8°
